Regional Weather Roundup
Issued by NWS Sterling, VA

Home | Current Version | Previous Version | Text Only | Print | Product List | Glossary Off
Versions: 1 2 3 4 5 6 7 8 9 10 11 12 13 14 15 16 17 18 19 20 21 22 23 24 25 26 27 28

000
ASUS41 KLWX 281011
RWRLWX

REGIONAL WEATHER ROUNDUP
NATIONAL WEATHER SERVICE BALTIMORE MD/WASHINGTON DC
600 AM EDT THU APR 28 2016

Note: "FAIR" indicates few or no clouds below 12,000 feet
with no significant weather and/or obstructions to visibility.
 TC=TEMPERATURE CELSIUS

 * =Non NWS site. Station does not report precipitation (e.g. rain,
    snow, etc.), thunder, or fog.

DCZ001-MDZ009-015-VAZ040>042-051-053>054-281100-
WASHINGTON METRO

CITY           SKY/WX    TMP DP  RH WIND       PRES   REMARKS
WASHINGTON NAT LGT RAIN  54  50  86 E7        29.96R
DULLES         LGT RAIN  53  50  89 E7        29.94S FOG
ANDREWS AFB    CLOUDY    52  50  93 E6        29.94F
FT BELVOIR     MOCLDY    54  50  87 VRB1      29.94F
QUANTICO       CLOUDY    56  52  86 E10       29.94F
COLLEGE PARK*  CLOUDY    52  48  87 CALM      29.96R
LEESBURG*      CLOUDY    54  54 100 E5        29.95S FOG
MANASSAS*      CLOUDY    54  54 100 E5        29.94S
GAITHERSBURG*  MOCLDY    52  46  82 SE5       30.00R

$$

MDZ006>007-011-014-281100-
BALTIMORE METRO

CITY           SKY/WX    TMP DP  RH WIND       PRES   REMARKS
BWI AIRPORT    CLOUDY    53  48  83 S3        29.96R
MD SCIENCE CTR   N/A     54  48  80 MISG      29.97R
MARTIN STATE   CLOUDY    54  52  94 NE5       29.98S
ANNAPOLIS      CLOUDY    54  50  86 E3        29.96R
FORT MEADE*    CLOUDY    52  48  87 CALM      29.99R

$$

MDZ012-015-019>023-281100-
MARYLAND EASTERN SHORE

CITY           SKY/WX    TMP DP  RH WIND       PRES   REMARKS
OCEAN CITY     CLOUDY    52  47  83 NE5       29.96S
SALISBURY      CLOUDY    50  47  89 NE5       29.95S
CAMBRIDGE*       N/A     50  46  87 CALM      29.95R
EASTON*        CLOUDY   N/A N/A N/A NE5       30.00R

$$

MDZ017>025-281100-
SOUTHERN MARYLAND

CITY           SKY/WX    TMP DP  RH WIND       PRES   REMARKS
PATUXENT RIVER CLOUDY    53  50  89 NE7       29.94S
ST INIGOES     HVY RAIN  53  51  93 NE5       29.94R FOG
LEONARDTOWN*   CLOUDY    52  50  93 CALM      29.96S

$$

MDZ003>005-281100-
NORTH CENTRAL MARYLAND

CITY           SKY/WX    TMP DP  RH WIND       PRES   REMARKS
FREDERICK*     CLOUDY    50  50 100 N3        29.97S FOG
HAGERSTOWN APT CLOUDY    53  49  86 E5        29.94R FOG
WESTMINSTER*   CLOUDY    50  48  93 CALM      29.95S

$$

MDZ501>502-281100-
WESTERN MARYLAND

CITY           SKY/WX    TMP DP  RH WIND       PRES   REMARKS
OAKLAND*       CLOUDY    50  50 100 SE10      29.88S FOG
CUMBERLAND*    CLOUDY    52  52 100 CALM      29.95R

$$

VAZ025>031-281100-
SHENANDOAH VALLEY

CITY           SKY/WX    TMP DP  RH WIND       PRES   REMARKS
WINCHESTER*    LGT RAIN  52  52 100 NE3       29.92S
FRONT ROYAL*   CLOUDY    52  52 100 NE3       29.90F
LURAY*         CLOUDY    54  54 100 CALM      29.91R FOG
NEW MARKET*    CLOUDY    54  53  97 NE3       29.89F
STAUNTON*      LGT RAIN  58  58 100 CALM      29.91S
WAYNESBORO*    CLOUDY    55  55  97 MISG      29.90R

$$

WVZ021-048>050-054>055-281100-
EASTERN WEST VIRGINIA PANHANDLE

CITY           SKY/WX    TMP DP  RH WIND       PRES   REMARKS
MARTINSBURG    CLOUDY    52  50  93 NE5       29.93R FOG
PETERSBURG*    CLOUDY    57  55  90 CALM      29.89R

$$

VAZ036>039-050-281100-
CENTRAL FOOTHILLS

CITY           SKY/WX    TMP DP  RH WIND       PRES   REMARKS
CHARLOTTESVILL LGT RAIN  57  55  93 NE3       29.91S FOG
CULPEPER*      CLOUDY    55  54  95 CALM      29.94S FOG
ORANGE*        CLOUDY    55  55 100 CALM      29.94R
GORDONSVILLE*  CLOUDY    55  55 100 CALM      29.92R FOG
WARRENTON*     CLOUDY    55  49  80 NE3       29.93S

$$

VAZ055>057-281100-
NORTH AND CENTRAL PIEDMONT

CITY           SKY/WX    TMP DP  RH WIND       PRES   REMARKS
FREDERICKSBRG* CLOUDY    55  55 100 E3        29.92F
STAFFORD*      CLOUDY    54  51  90 E8        29.97S

$$

NCZ024-NYZ072-PAZ021-071-VAZ022-071-281100-
OTHER REGIONAL OBSERVATIONS

CITY           SKY/WX    TMP DP  RH WIND       PRES   REMARKS
NEW YORK CITY  CLOUDY    48  22  35 VRB6      30.02R
PHILADELPHIA   CLOUDY    51  44  77 NE3       29.99R FOG
PITTSBURGH     CLOUDY    53  29  39 NE6       29.87R
ROANOKE        FOG       60  60 100 SE8       29.92R VSB 1/2
RICHMOND       RAIN      56  55  97 NE5       29.91S FOG
RALEIGH        CLOUDY    66  64  93 SE7       29.89S

$$

ANZ530>537-281100-
MARINE OBSERVATIONS

STATION/POSITION TIME  TEMP    WIND        PRES
                       AIR SEA DIR/SP/G
                 (UTC) (F)     (DEG/KT/KT) (MB)
THOMAS PT LIGHT  1000   54 58   70/  5/  5 1016.1R
BALT KEY BRIDGE  0900   54      20/  5/  5 1014.2R
COVE POINT       0900   53      80/  9/ 10 1014.1F
LEWISETTA        0900   56 62   50/  4/  7 1013.3S
SOLOMONS ISLAND  0900   53 60   90/  4/  5   N/A
PINEY POINT      0900           70/  5/  6   N/A

$$





USA.gov is the U.S. government's official web portal to all federal, state and local government web resources and services.